Location: Peterborough
(44.3091°N, 78.3197°W)
Time: 04:30:11
(UTC-04:00)

Tiros 1 despin weight - Pass Details

Date: 31 March 2023
Orbit: 586 x 632 km, 48.2° (Epoch: 08 June)

Event Time Altitude Azimuth Distance (km) Brightness Sun altitude
Rises 18:13:56 0° 195° (SSW) 2,800 ? 14.4°
Reaches altitude 10° 18:16:56 10° 174° (S) 1,900 ? 13.8°
Maximum altitude 18:19:37 16° 136° (SE) 1,540 ? 13.3°
Drops below altitude 10° 18:22:19 10° 97° (E) 1,905 ? 12.9°
Sets 18:25:18 0° 76° (ENE) 2,811 ? 12.3°
